Regional Weather Roundup
Issued by NWS Albany, NY

Home | Current Version | Previous Version | Text Only | Print | Product List | Glossary On
Versions: 1 2 3 4 5 6 7 8 9 10 11 12 13 14 15 16 17 18 19 20 21 22 23 24 25 26 27 28 29 30 31 32 33 34 35 36 37 38 39 40 41 42 43 44 45 46 47 48 49 50
000
ASUS41 KALY 291310
RWRALY

NEW YORK STATE HOURLY WEATHER ROUNDUP
NATIONAL WEATHER SERVICE ALBANY NY
900 AM EDT TUE JUL 29 2014

NOTE: "FAIR" INDICATES FEW OR NO CLOUDS BELOW 12,000 FEET WITH NO
SIGNIFICANT WEATHER AND/OR NO OBSTRUCTIONS TO VISIBILITY.

NYZ032-033-038>043-046>054-057>066-NYZ062>081-291400-
EAST


CITY           SKY/WX    TMP DP  RH WIND       PRES   REMARKS
ALBANY         MOSUNNY   63  54  72 W9        29.84R
GLENS FALLS    SUNNY     63  52  67 VRB3      29.81R
POUGHKEEPSIE   SUNNY     67  53  61 W5        29.84R
NEWBURGH       MOSUNNY   64  55  72 NW7       29.87R
MONTGOMERY     SUNNY     65  53  65 MISG      29.86R
WHITE PLAINS   SUNNY     66  54  65 NW12      29.85R
ISLIP          MOSUNNY   72  56  57 N10       29.82R
NEW YORK CITY  MOSUNNY   67  54  63 NW10      29.85R
CENTRAL PARK   MOSUNNY   66  53  63 W7        29.88R
$$

NYZ005>009-017-018-044>046-055-056-291400-
CENTRAL


CITY           SKY/WX    TMP DP  RH WIND       PRES   REMARKS
FULTON         SUNNY     64  53  67 VRB7      29.88R
SYRACUSE       MOSUNNY   61  57  87 W7        29.88R
ROME           SUNNY     59  54  83 SW5       29.87R
ELMIRA         CLOUDY    59  54  83 SW8       29.91R
BINGHAMTON     CLOUDY    56  54  93 W8        29.90R
MONTICELLO     MOSUNNY   59  54  82 NW8       29.89S
$$

NYZ026>034-041>043-291400-
NORTH


CITY           SKY/WX    TMP DP  RH WIND       PRES   REMARKS
WATERTOWN      MOSUNNY   62  51  67 N3        29.87R
FORT DRUM      NOT AVBL
MASSENA        SUNNY     59  53  80 W9        29.84R
SARANAC LAKE   CLOUDY    51  49  92 SW7       29.82R
PLATTSBURGH    SUNNY     62  53  72 VRB7      29.79R
$$

NYZ001>004-010>016-019>021-291400-
WEST


CITY           SKY/WX    TMP DP  RH WIND       PRES   REMARKS
NIAGARA FALLS  PTSUNNY   61  55  81 NW9       29.92R
BUFFALO        CLOUDY    60  55  83 W6        29.93R
DUNKIRK        CLOUDY    62  55  77 CALM      29.94R
JAMESTOWN      CLOUDY    55  54  94 NW3       29.96R
WELLSVILLE     CLOUDY    56  50  80 VRB3      29.96R
ROCHESTER      CLOUDY    61  56  83 W5        29.91R
PENN YAN       CLOUDY    60  54  80 W9        29.91R
$$

             KEY
       WCI = WIND CHILL INDEX
       VSB = VISIBILITY
       HX  = HEAT INDEX
$$


USA.gov is the U.S. government's official web portal to all federal, state and local government web resources and services.